User: anonymous
Location: Fiddletown
(38.4917°N, 120.6633°W)
Time: 23:55:13
(UTC-07:00)
Language:

Envisat - Orbit

View from above orbital plane
View from above orbital plane
View from above satellite
View from above satellite

Ground track
Ground track

The orbit data is extracted from the following two-line orbital elements,

1 27386U 02009A   14244.78758441  .00000033  00000-0  25112-4 0  4127
2 27386 098.3764 308.2313 0001308 105.9749 002.3764 14.37727522654582
Epoch (UTC): 01 September 2014 18:54:07
Eccentricity: 0.0001308
inclination: 98.3764°
perigee height: 765 km
apogee height: 767 km
right ascension of ascending node: 308.2313°
argument of perigee: 105.9749°
revolutions per day: 14.37727522
mean anomaly at epoch: 2.3764°
orbit number at epoch: 65458

The dashed part of the orbit path shows where the satellite is in the earth's shadow,  

DLR